EUTELSAT 3B

Last updated on Sept. 30, 2020, 5:50 a.m. UTC

1 39773U 14030A   20273.85615747  .00000003  00000-0  00000-0 0  9997
2 39773   0.0942 323.3660 0006791 221.3939 135.6180  1.00272370 23147
UTC
Height (km)
Latitude
Longitude
Inclination
Orbital Period
UTC large
Height (km)
Speed (km/s)
/
Latitude / Longitude
Inclination (degrees)
Orbital Period (minutes)
Azimuth
Elevation
Range (km)
Doppler Factor
iOS Compass Heading
iOS Angle

Next 30 passes for location: Hong Kong

Rise time Rise Azimuth (degrees) Set time Set Azimuth (degrees) Duration Max altitude (degrees)

No matching passes for this satellites